Hlavní strana
METAR-TAF:

METAR-TAF

Letiště :

Capital City Airport

Frankfort, Kentucky, Spojené státy americké

zeměpisná šířka: 38-11-05N, zeměpisná délka: 084-54-12W, výška: 245 m

Aktuální stav počasí

Zpráva byla vytvořena před 23 minutami, v 03:53 UTC
Východoseverovýchodní vítr 3 kt
Teplota 4°C
Vlhkost vzduchu 87%
Tlak 1023 hPa
Viditelnost: 11.3 km
Jasno

METAR: KFFT 180353Z AUTO 07003KT 7SM CLR 04/02 A3021 RMK AO2 SLP232 T00390017

Čas: 23:16 (04:16 UTC)


TAF: chybějící

Stav a předpovědi počasí z více než 4 000 letišť (zprávy METAR a TAF).

Červené a žluté tečky na mapě představují dostupné meteorologické stanice.

Když kurzor umístíte na tečku, zobrazí se název stanice.

Pak kliknutím zobrazíte stav a předpověď počasí.

Chcete-li změnit mapu, kliknutím na zelené tlačítko se znaménkem +mapu přiblížíte, kliknutím na zelené tlačítko se znaménkem – mapu oddálíte a kliknutím na zelené šipky přejdete na sousední mapy.


METAR-TAF: